カタログに戻る

STARLINK-11365

運用中通信VLEO
NORAD 62886·PAYLOAD·🇺🇸 United States

打ち上げ Feb 4, 2025 から Cape Canaveral Space Force Station

Loading…

次のパス (今後24時間)

TLE

最新Source: CelesTrak SupGP

元期: Sep 15, 2026, 03:29 UTC

1 62886C 25024H   26258.14562500  .00086910  00000+0  67451-3 0  2586
2 62886  43.0000 119.1705 0001931 267.5819 197.0086 15.70812861    16

AllMySatでSTARLINK-11365をリアルタイム追跡

Download on the App Store